Regional Weather Roundup
Issued by NWS

Home | Current Version | Previous Version | Text Only | Print | Product List | Glossary Off
Versions: 1 2 3 4 5 6 7 8 9 10 11 12 13 14 15 16 17 18 19 20 21 22 23 24 25 26 27 28 29 30 31 32 33 34 35 36 37 38 39 40 41 42 43 44 45 46 47 48 49 50

000
ASUS43 KLMK 271902
RWRKY
KENTUCKY REGIONAL WEATHER ROUNDUP
NATIONAL WEATHER SERVICE LOUISVILLE KY
300 PM EDT FRI MAR 27 2015

NOTE "FAIR" INDICATES FEW OR NO CLOUDS BELOW 12,000 FEET
WITH NO SIGNIFICANT WEATHER AND/OR OBSTRUCTIONS TO VISIBILITY.

KYZ001>023-026-027-061>063-070>075-272000-
WESTERN AND SOUTH CENTRAL KENTUCKY

CITY           SKY/WX    TMP DP  RH WIND       PRES   REMARKS
PADUCAH        CLOUDY    40  30  67 NW12      30.11S WCI  33
HENDERSON      PTSUNNY   39  27  60 NW9G17    30.09F WCI  33
OWENSBORO      CLOUDY    40  28  62 N12G21    30.08R WCI  33
HOPKINSVILLE   PTSUNNY   43  32  64 NW10G21   30.03S
BOWLING GREEN  CLOUDY    44  28  53 NW9       30.02R
GLASGOW        NOT AVBL
$$

KYZ024-025-028>034-038-045-046-053-272000-
NORTH CENTRAL KENTUCKY

CITY           SKY/WX    TMP DP  RH WIND       PRES   REMARKS
LOUISVILLE/SDF CLOUDY    41  24  51 N12       30.03S
LOUISVILLE/LOU CLOUDY    40  23  50 N10G18    30.03S WCI  33
FORT KNOX      CLOUDY    38  25  60 NW13      30.01S WCI  30
$$

KYZ035>037-039>044-047>052-055>060-089>105-272000-
NORTHEAST KENTUCKY

CITY           SKY/WX    TMP DP  RH WIND       PRES   REMARKS
LEXINGTON      CLOUDY    38  24  57 NW15      29.98S WCI  29
COVINGTON      FLURRIES  33  23  66 N16       30.01S WCI  23
FRANKFORT      CLOUDY    38  23  55 NW12G20   29.99S WCI  30
$$

KYZ054-064>069-076>088-106>120-272000-
SOUTHEAST KENTUCKY

CITY           SKY/WX    TMP DP  RH WIND       PRES   REMARKS
JACKSON        CLOUDY    44  23  43 VRB6      29.89F
LONDON         CLOUDY    46  23  40 NW12G20   29.91F
SOMERSET       NOT AVBL
MIDDLESBORO    PTSUNNY   47  27  45 N3        29.89F
MONTICELLO     FAIR      45  29  53 N10G18    29.97F
$$



USA.gov is the U.S. government's official web portal to all federal, state and local government web resources and services.